Home > Weather > Inverness > Past weeks

Flag for USA Past Weather in Inverness, Florida, USA — Yesterday and Last 2 Weeks

Now
79 °F

Warm.


Feels Like: 82 °F
Forecast: 69 / 90 °F
Wind: N/A

Location: The Villages

Current Time: May 29, 2016 at 9:19:16 PM

Latest Report: May 29, 2016 at 8:55 PM


Visibility: 10 mi

Pressure: 29.93 "Hg

Humidity: 79%

Dew Point: 72 °F

Location of InvernessLocation

Past Weather in Inverness — Graph

°F

Inverness Temperature Yesterday

Maximum temperature yesterday: 91 °F (at 3:35 PM)
Minimum temperature yesterday: 68 °F (at 4:35 AM)
Average temperature yesterday: 80 °F

High & Low Weather Summary for the Past Weeks

 TemperatureHumidityPressure
High91 °F (May 16, 2:15 PM)100% (May 15, 5:35 AM)30.14 "Hg (May 15, 5:35 AM)
Low63 °F (May 15, 5:35 AM)27% (May 15, 4:55 PM)29.76 "Hg (May 22, 4:55 PM)
Average78 °F72%29.94 "Hg
* Reported May 14 8:35 PM — May 29 8:15 PM, Inverness, Weather by CustomWeather, © 2016

Note: Actual official high and low records may vary slightly from our data, if they occured in-between our weather recording intervals... More about our weather records

Advertising

Inverness Weather History for the Previous 24 Hours

Scroll right to see more
 ConditionsComfort  
Time TempWeatherWind HumidityBarometerVisibility
8:15 PM
Sun, May 29
79 °FWarm.N/A79%29.91 "Hg10 mi
7:55 PM79 °FWarm.No wind79%29.91 "Hg10 mi
7:15 PM79 °FWarm.N/A79%29.91 "Hg10 mi
6:55 PM79 °FWarm.N/A79%29.90 "Hg10 mi
6:35 PM79 °FWarm.N/A79%29.90 "Hg10 mi
6:15 PM77 °FWarm.No wind79%29.91 "Hg8 mi
5:55 PM75 °FMild.N/A83%29.92 "Hg8 mi
5:35 PM75 °FHaze.15 mph78%29.93 "Hg4 mi
5:15 PM79 °FWarm.N/A74%29.94 "Hg10 mi
4:55 PM79 °FWarm.N/A70%29.91 "Hg10 mi
4:35 PM82 °FWarm.14 mph58%29.91 "Hg8 mi
4:15 PM90 °FHot.15 mph46%29.92 "Hg10 mi
3:55 PM90 °FHot.N/A46%29.91 "Hg10 mi
3:35 PM90 °FHot.No wind46%29.91 "Hg10 mi
3:15 PM91 °FHot.N/A44%29.92 "Hg10 mi
2:55 PM91 °FHot.N/A44%29.93 "Hg10 mi
2:35 PM90 °FHot.No wind46%29.93 "Hg10 mi
2:15 PM91 °FHot.N/A46%29.94 "Hg10 mi
1:55 PM90 °FHot.5 mph49%29.95 "Hg10 mi
1:35 PM90 °FHot.N/A49%29.96 "Hg10 mi
1:15 PM90 °FHot.N/A49%29.96 "Hg10 mi
12:55 PM86 °FWarm.N/A55%29.97 "Hg7 mi
12:15 PM86 °FWarm.No wind55%29.98 "Hg8 mi
11:55 AM86 °FWarm.N/A55%29.99 "Hg10 mi
11:35 AM86 °FWarm.No wind55%30.00 "Hg10 mi
11:15 AM86 °FWarm.No wind59%29.99 "Hg10 mi
10:55 AM84 °FWarm.No wind58%29.99 "Hg10 mi
10:35 AM84 °FWarm.N/A58%29.99 "Hg10 mi
10:15 AM82 °FWarm.No wind62%29.99 "Hg10 mi
9:55 AM81 °FWarm.No wind70%30.00 "Hg10 mi
9:35 AM82 °FWarm.No wind66%29.99 "Hg10 mi
9:15 AM81 °FWarm.No wind70%29.99 "Hg10 mi
8:55 AM79 °FWarm.No wind74%29.99 "Hg10 mi
8:35 AM77 °FWarm.No wind83%29.98 "Hg10 mi
8:15 AM75 °FMild.No wind89%29.98 "Hg10 mi
7:55 AM75 °FMild.No wind89%29.98 "Hg10 mi
7:35 AM73 °FMild.No wind94%29.97 "Hg10 mi
7:15 AM70 °FMild.No wind100%29.97 "Hg10 mi
6:55 AM70 °FMild.No wind100%29.97 "Hg10 mi
6:15 AM70 °FMild.No wind100%29.95 "Hg10 mi
5:55 AM72 °FMild.No wind94%29.95 "Hg10 mi
5:35 AM72 °FMild.No wind94%29.95 "Hg10 mi
5:15 AM72 °FMild.No wind94%29.94 "Hg10 mi
4:55 AM72 °FMild.No wind94%29.94 "Hg10 mi
4:35 AM72 °FMild.No wind94%29.94 "Hg10 mi
4:15 AM72 °FMild.No wind94%29.94 "Hg10 mi
3:55 AM72 °FMild.No wind94%29.94 "Hg10 mi
3:35 AM72 °FMild.No wind94%29.94 "Hg7 mi
3:15 AM73 °FMild.N/A89%29.95 "Hg10 mi
2:55 AM73 °FMild.No wind89%29.96 "Hg10 mi
2:35 AM73 °FMild.No wind89%29.96 "Hg10 mi
2:15 AM73 °FMild.N/A89%29.96 "Hg10 mi
1:55 AM73 °FMild.N/A89%29.97 "Hg10 mi
1:35 AM73 °FMild.No wind89%29.98 "Hg10 mi
1:15 AM73 °FMild.No wind89%29.98 "Hg10 mi
12:55 AM73 °FMild.No wind89%29.97 "Hg10 mi
12:35 AM75 °FMild.No wind83%29.96 "Hg10 mi
12:15 AM75 °FMild.No wind83%29.97 "Hg10 mi
11:55 PM
Sat, May 28
75 °FMild.No wind78%29.97 "Hg10 mi
11:35 PM75 °FMild.No wind78%29.98 "Hg10 mi
11:15 PM77 °FWarm.No wind79%29.98 "Hg10 mi
10:55 PM77 °FWarm.N/A79%29.97 "Hg10 mi
10:35 PM77 °FWarm.No wind79%29.96 "Hg10 mi
10:15 PM79 °FWarm.N/A79%29.94 "Hg10 mi
9:55 PM79 °FWarm.N/A79%29.93 "Hg10 mi
9:35 PM81 °FWarm.N/A70%29.93 "Hg10 mi
9:15 PM81 °FWarm.N/A70%29.92 "Hg10 mi
Weather by CustomWeather, © 2016

See weather overviewHow to use our weather pages